This demonstration page uses our WeatherBlox Daily Observations layout. Learn more.

Left ArrowRight Arrow

Hourly Observations for August 20, 2021

Temp ( °F °C ) Dew Point ( °F °C ) Humidity (%) Winds ( mph kmh ) Pressure ( in mb ) Visibility ( mi km ) Precip ( " mm )
12:06 am 00:06 Mostly Cloudy 73 23 70 21 89 89 SSE 15 24 29.77 1008 10 16 0.00 0.00
12:56 am 00:56 Cloudy 74 23.3 70 21.1 88 88 NW 14 22 29.86 1011 10 16 0.00 0.00
1:07 am 01:07 Cloudy with Nearby Thunderstorms 70 21 63 17 78 78 NW 21 33 29.84 1010 6 10 0.00 0.00
1:15 am 01:15 Cloudy with Nearby Thunderstorms 64 18 63 17 94 94 NW 17 28 29.86 1011 4 6 0.08 2.03
1:26 am 01:26 Cloudy with Thunderstorms 64 18 64 18 100 100 VRB 6 9 29.87 1012 2 3 0.19 4.83
1:31 am 01:31 Cloudy with Thunderstorms 64 18 64 18 100 100 NW 6 9 29.87 1012 1 2 0.31 7.87
1:41 am 01:41 Cloudy with Strong Thunderstorms 64 18 63 17 94 94 N 10 17 29.84 1011 1 1 0.00 0.00
1:45 am 01:45 Cloudy with Nearby Thunderstorms 64 18 63 17 94 94 N 10 17 29.84 1011 1 2 0.63 16.00
1:48 am 01:48 Cloudy with Light Rain 64 18 63 17 94 94 NNE 9 15 29.83 1010 3 4 0.64 16.26
1:50 am 01:50 Cloudy with Nearby Thunderstorms 64 18 63 17 94 94 NNE 7 11 29.84 1011 4 6 0.65 16.51
1:56 am 01:56 Cloudy with Nearby Thunderstorms 64 17.8 64 17.8 100 100 E 5 7 29.85 1011 5 8 0.66 16.76
2:05 am 02:05 Cloudy with Heavy Rain 64 18 64 18 100 100 ENE 9 15 29.83 1010 3 4 0.00 0.00
2:16 am 02:16 Cloudy with Rain 64 18 64 18 100 100 E 7 11 29.83 1010 4 6 0.13 3.30
2:29 am 02:29 Cloudy with Nearby Thunderstorms 64 18 64 18 100 100 Calm 29.84 1011 4 6 0.17 4.32
2:52 am 02:52 Cloudy with Nearby Thunderstorms 64 18 64 18 100 100 ENE 3 6 29.82 1010 2 3 0.27 6.86
2:56 am 02:56 Cloudy with Nearby Thunderstorms 64 17.8 64 17.8 100 100 ENE 6 9 29.82 1010 2 2 0.33 8.38
3:11 am 03:11 Cloudy with Thunderstorms 64 18 64 18 100 100 Calm 29.83 1010 1 1 0.29 7.37
3:21 am 03:21 Cloudy with Nearby Thunderstorms 64 18 64 18 100 100 E 12 19 29.80 1009 1 2 0.39 9.91
3:26 am 03:26 Cloudy with Nearby Thunderstorms 64 18 64 18 100 100 E 8 13 29.81 1010 2 3 0.42 10.67
3:29 am 03:29 Cloudy with Nearby Thunderstorms 64 18 64 18 100 100 ESE 8 13 29.82 1010 2 3 0.44 11.18
3:35 am 03:35 Cloudy with Nearby Thunderstorms 64 18 64 18 100 100 E 9 15 29.81 1010 3 4 0.46 11.68
3:42 am 03:42 Cloudy 64 18 64 18 100 100 E 12 19 29.80 1009 9 14 0.46 11.68
3:56 am 03:56 Cloudy 64 17.8 64 17.8 100 100 E 9 15 29.81 1009 10 16 0.47 11.94
4:04 am 04:04 Cloudy 64 18 64 18 100 100 E 13 20 29.80 1009 10 16 0.00 0.00
4:13 am 04:13 Cloudy 64 18 64 18 100 100 E 10 17 29.80 1009 10 16 0.00 0.00
4:36 am 04:36 Cloudy 64 18 64 18 100 100 E 9 15 29.80 1009 10 16 0.00 0.00
4:56 am 04:56 Cloudy with Light Rain 65 18.3 64 17.8 97 97 E 10 17 29.78 1009 10 16 0.03 0.76
5:05 am 05:05 Cloudy with Light Rain 64 18 64 18 100 100 E 9 15 29.78 1009 10 16 0.01 0.25
5:56 am 05:56 Mostly Cloudy 65 18.3 64 17.8 97 97 E 13 20 29.74 1007 10 16 0.01 0.25
6:56 am 06:56 Partly Cloudy 65 18.3 64 17.8 97 97 ESE 14 22 29.73 1007 10 16 0.00 0.00
7:56 am 07:56 Mostly Sunny 66 18.9 64 17.8 93 93 ESE 10 17 29.72 1006 10 16 0.00 0.00
8:56 am 08:56 Sunny 67 19.4 65 18.3 93 93 ESE 6 9 29.72 1006 10 16 0.00 0.00
9:46 am 09:46 Partly Cloudy 70 21 66 19 88 88 SE 12 19 29.66 1004 10 16 0.00 0.00
9:54 am 09:54 Mostly Cloudy 72 22 68 20 88 88 SE 13 20 29.65 1004 10 16 0.00 0.00
9:56 am 09:56 Mostly Cloudy 71 21.7 68 20 90 90 SE 14 22 29.69 1005 10 16 0.00 0.00
10:11 am 10:11 Cloudy 72 22 68 20 88 88 SSE 14 22 29.66 1004 10 16 0.00 0.00
10:56 am 10:56 Cloudy 72 22.2 69 20.6 91 91 WSW 7 11 29.74 1007 10 16 0.00 0.00
11:56 am 11:56 Partly Cloudy 76 24.4 71 21.7 85 85 S 12 19 29.72 1007 10 16 0.00 0.00
12:27 pm 12:27 Mostly Cloudy 79 26 72 22 79 79 WSW 12 19 29.68 1005 10 16 0.00 0.00
12:38 pm 12:38 Mostly Cloudy 79 26 72 22 79 79 WSW 10 17 29.68 1005 10 16 0.00 0.00
12:56 pm 12:56 Cloudy 79 26.1 71 21.7 77 77 WNW 20 31 29.74 1007 10 16 0.00 0.00
1:15 pm 13:15 Cloudy 72 22 64 18 78 78 NW 16 26 29.73 1007 10 16 0.00 0.00
1:56 pm 13:56 Cloudy 69 20.6 63 17.2 81 81 NNW 16 26 29.79 1009 10 16 0.00 0.00
2:56 pm 14:56 Cloudy 69 20.6 59 15 70 70 NNW 10 17 29.80 1009 10 16 0.00 0.00
3:30 pm 15:30 Cloudy 73 23 59 15 61 61 N 12 19 29.74 1007 10 16 0.00 0.00
3:56 pm 15:56 Cloudy 75 23.9 59 15 58 58 N 10 17 29.79 1009 10 16 0.00 0.00
4:56 pm 16:56 Cloudy 78 25.6 61 16.1 56 56 N 8 13 29.76 1008 10 16 0.00 0.00
5:56 pm 17:56 Sunny 80 26.7 63 17.2 56 56 NW 8 13 29.76 1008 10 16 0.00 0.00
6:56 pm 18:56 Sunny 80 26.7 61 16.1 52 52 NW 6 9 29.75 1008 10 16 0.00 0.00
7:56 pm 19:56 Sunny 77 25 56 13.3 48 48 WNW 10 17 29.75 1007 10 16 0.00 0.00
8:56 pm 20:56 Clear 71 21.7 55 12.8 57 57 NW 5 7 29.80 1009 10 16 0.00 0.00
9:56 pm 21:56 Clear 70 21.1 57 13.9 64 64 Calm 29.82 1010 10 16 0.00 0.00
10:56 pm 22:56 Clear 69 20.6 56 13.3 63 63 Calm 29.85 1011 10 16 0.00 0.00
11:56 pm 23:56 Clear 65 18.3 55 12.8 70 70 NW 9 15 29.87 1012 10 16 0.00 0.00

Powered by AerisWeather